Year,Month,Day,Hour,Minute,Value (Times are PST for temperature in C)
2008,08,03,00,00,14.20
2008,08,03,00,01,14.20
2008,08,03,00,02,14.10
2008,08,03,00,03,14.10
2008,08,03,00,04,14.10
2008,08,03,00,05,14.00
2008,08,03,00,06,14.00
2008,08,03,00,07,14.00
2008,08,03,00,08,14.00
2008,08,03,00,09,14.00
2008,08,03,00,10,14.00
2008,08,03,00,11,14.00
2008,08,03,00,12,13.90
2008,08,03,00,13,13.90
2008,08,03,00,14,13.90
2008,08,03,00,15,13.90
2008,08,03,00,16,13.90
2008,08,03,00,17,13.90
2008,08,03,00,18,13.90
2008,08,03,00,19,13.80
2008,08,03,00,20,13.80
2008,08,03,00,21,13.70
2008,08,03,00,22,13.70
2008,08,03,00,23,13.70
2008,08,03,00,24,13.70
2008,08,03,00,25,13.70
2008,08,03,00,26,13.70
2008,08,03,00,27,13.60
2008,08,03,00,28,13.60
2008,08,03,00,29,13.60
2008,08,03,00,30,13.60
2008,08,03,00,31,13.60
2008,08,03,00,32,13.60
2008,08,03,00,33,13.60
2008,08,03,00,34,13.60
2008,08,03,00,35,13.60
2008,08,03,00,36,13.60
2008,08,03,00,37,13.60
2008,08,03,00,38,13.60
2008,08,03,00,39,13.60
2008,08,03,00,40,13.60
2008,08,03,00,41,13.50
2008,08,03,00,42,13.50
2008,08,03,00,43,13.50
2008,08,03,00,44,13.50
2008,08,03,00,45,13.50
2008,08,03,00,46,13.40
2008,08,03,00,47,13.40
2008,08,03,00,48,13.40
2008,08,03,00,49,13.40
2008,08,03,00,50,13.40
2008,08,03,00,51,13.50
2008,08,03,00,52,13.50
2008,08,03,00,53,13.50
2008,08,03,00,54,13.50
2008,08,03,00,55,13.50
2008,08,03,00,56,13.60
2008,08,03,00,57,13.50
2008,08,03,00,58,13.50
2008,08,03,00,59,13.50
2008,08,03,01,00,13.60
2008,08,03,01,01,13.60
2008,08,03,01,02,13.60
2008,08,03,01,03,13.60
2008,08,03,01,04,13.60
2008,08,03,01,05,13.60
2008,08,03,01,06,13.50
2008,08,03,01,07,13.50
2008,08,03,01,08,13.50
2008,08,03,01,09,13.50
2008,08,03,01,10,13.50
2008,08,03,01,11,13.50
2008,08,03,01,12,13.50
2008,08,03,01,13,13.40
2008,08,03,01,14,13.40
2008,08,03,01,15,13.40
2008,08,03,01,16,13.40
2008,08,03,01,17,13.40
2008,08,03,01,18,13.40
2008,08,03,01,19,13.40
2008,08,03,01,20,13.40
2008,08,03,01,21,13.40
2008,08,03,01,22,13.40
2008,08,03,01,23,13.40
2008,08,03,01,24,13.40
2008,08,03,01,25,13.40
2008,08,03,01,26,13.40
2008,08,03,01,27,13.30
2008,08,03,01,28,13.30
2008,08,03,01,29,13.40
2008,08,03,01,30,13.40
2008,08,03,01,31,13.30
2008,08,03,01,32,13.30
2008,08,03,01,33,13.30
2008,08,03,01,34,13.30
2008,08,03,01,35,13.30
2008,08,03,01,36,13.30
2008,08,03,01,37,13.20
2008,08,03,01,38,13.20
2008,08,03,01,39,13.20
2008,08,03,01,40,13.20
2008,08,03,01,41,13.30
2008,08,03,01,42,13.30
2008,08,03,01,43,13.30
2008,08,03,01,44,13.30
2008,08,03,01,45,13.30
2008,08,03,01,46,13.30
2008,08,03,01,47,13.30
2008,08,03,01,48,13.30
2008,08,03,01,49,13.40
2008,08,03,01,50,13.40
2008,08,03,01,51,13.40
2008,08,03,01,52,13.40
2008,08,03,01,53,13.40
2008,08,03,01,54,13.40
2008,08,03,01,55,13.40
2008,08,03,01,56,13.40
2008,08,03,01,57,13.40
2008,08,03,01,58,13.40
2008,08,03,01,59,13.50
2008,08,03,02,00,13.50
2008,08,03,02,01,13.50
2008,08,03,02,02,13.40
2008,08,03,02,03,13.40
2008,08,03,02,04,13.40
2008,08,03,02,05,13.40
2008,08,03,02,06,13.40
2008,08,03,02,07,13.40
2008,08,03,02,08,13.40
2008,08,03,02,09,13.40
2008,08,03,02,10,13.40
2008,08,03,02,11,13.40
2008,08,03,02,12,13.40
2008,08,03,02,13,13.40
2008,08,03,02,14,13.40
2008,08,03,02,15,13.40
2008,08,03,02,16,13.30
2008,08,03,02,17,13.30
2008,08,03,02,18,13.30
2008,08,03,02,19,13.30
2008,08,03,02,20,13.20
2008,08,03,02,21,13.10
2008,08,03,02,22,13.10
2008,08,03,02,23,13.00
2008,08,03,02,24,13.00
2008,08,03,02,25,13.00
2008,08,03,02,26,13.00
2008,08,03,02,27,12.90
2008,08,03,02,28,12.90
2008,08,03,02,29,12.90
2008,08,03,02,30,12.90
2008,08,03,02,31,12.90
2008,08,03,02,32,12.80
2008,08,03,02,33,12.80
2008,08,03,02,34,12.90
2008,08,03,02,35,12.90
2008,08,03,02,36,12.90
2008,08,03,02,37,12.90
2008,08,03,02,38,12.90
2008,08,03,02,39,12.90
2008,08,03,02,40,13.00
2008,08,03,02,41,13.00
2008,08,03,02,42,13.00
2008,08,03,02,43,13.00
2008,08,03,02,44,13.00
2008,08,03,02,45,13.00
2008,08,03,02,46,13.00
2008,08,03,02,47,13.00
2008,08,03,02,48,13.00
2008,08,03,02,49,13.00
2008,08,03,02,50,13.00
2008,08,03,02,51,13.00
2008,08,03,02,52,13.00
2008,08,03,02,53,13.00
2008,08,03,02,54,12.90
2008,08,03,02,55,13.00
2008,08,03,02,56,13.00
2008,08,03,02,57,13.00
2008,08,03,02,58,12.90
2008,08,03,02,59,12.90
2008,08,03,03,00,12.90
2008,08,03,03,01,12.90
2008,08,03,03,02,12.90
2008,08,03,03,03,12.80
2008,08,03,03,04,12.80
2008,08,03,03,05,12.80
2008,08,03,03,06,12.80
2008,08,03,03,07,12.80
2008,08,03,03,08,12.80
2008,08,03,03,09,12.80
2008,08,03,03,10,12.80
2008,08,03,03,11,12.80
2008,08,03,03,12,12.80
2008,08,03,03,13,12.80
2008,08,03,03,14,12.70
2008,08,03,03,15,12.70
2008,08,03,03,16,12.70
2008,08,03,03,17,12.70
2008,08,03,03,18,12.70
2008,08,03,03,19,12.80
2008,08,03,03,20,12.80
2008,08,03,03,21,12.80
2008,08,03,03,22,12.80
2008,08,03,03,23,12.80
2008,08,03,03,24,12.70
2008,08,03,03,25,12.70
2008,08,03,03,26,12.70
2008,08,03,03,27,12.70
2008,08,03,03,28,12.70
2008,08,03,03,29,12.70
2008,08,03,03,30,12.70
2008,08,03,03,31,12.60
2008,08,03,03,32,12.60
2008,08,03,03,33,12.60
2008,08,03,03,34,12.50
2008,08,03,03,35,12.50
2008,08,03,03,36,12.40
2008,08,03,03,37,12.40
2008,08,03,03,38,12.40
2008,08,03,03,39,12.40
2008,08,03,03,40,12.40
2008,08,03,03,41,12.40
2008,08,03,03,42,12.30
2008,08,03,03,43,12.30
2008,08,03,03,44,12.30
2008,08,03,03,45,12.30
2008,08,03,03,46,12.30
2008,08,03,03,47,12.40
2008,08,03,03,48,12.40
2008,08,03,03,49,12.30
2008,08,03,03,50,12.30
2008,08,03,03,51,12.30
2008,08,03,03,52,12.30
2008,08,03,03,53,12.30
2008,08,03,03,54,12.30
2008,08,03,03,55,12.30
2008,08,03,03,56,12.30
2008,08,03,03,57,12.30
2008,08,03,03,58,12.30
2008,08,03,03,59,12.30
2008,08,03,04,00,12.20
2008,08,03,04,01,12.10
2008,08,03,04,02,12.10
2008,08,03,04,03,12.10
2008,08,03,04,04,12.10
2008,08,03,04,05,12.20
2008,08,03,04,06,12.20
2008,08,03,04,07,12.30
2008,08,03,04,08,12.30
2008,08,03,04,09,12.30
2008,08,03,04,10,12.30
2008,08,03,04,11,12.30
2008,08,03,04,12,12.30
2008,08,03,04,13,12.20
2008,08,03,04,14,12.20
2008,08,03,04,15,12.20
2008,08,03,04,16,12.20
2008,08,03,04,17,12.10
2008,08,03,04,18,12.10
2008,08,03,04,19,12.10
2008,08,03,04,20,12.00
2008,08,03,04,21,12.00
2008,08,03,04,22,12.00
2008,08,03,04,23,12.00
2008,08,03,04,24,11.90
2008,08,03,04,25,11.90
2008,08,03,04,26,12.00
2008,08,03,04,27,12.00
2008,08,03,04,28,12.00
2008,08,03,04,29,12.00
2008,08,03,04,30,12.10
2008,08,03,04,31,12.10
2008,08,03,04,32,12.10
2008,08,03,04,33,12.10
2008,08,03,04,34,12.00
2008,08,03,04,35,11.90
2008,08,03,04,36,11.80
2008,08,03,04,37,11.80
2008,08,03,04,38,11.60
2008,08,03,04,39,11.60
2008,08,03,04,40,11.50
2008,08,03,04,41,11.40
2008,08,03,04,42,11.40
2008,08,03,04,43,11.50
2008,08,03,04,44,11.60
2008,08,03,04,45,11.60
2008,08,03,04,46,11.60
2008,08,03,04,47,11.60
2008,08,03,04,48,11.60
2008,08,03,04,49,11.70
2008,08,03,04,50,11.70
2008,08,03,04,51,11.70
2008,08,03,04,52,11.70
2008,08,03,04,53,11.60
2008,08,03,04,54,11.60
2008,08,03,04,55,11.60
2008,08,03,04,56,11.60
2008,08,03,04,57,11.60
2008,08,03,04,58,11.60
2008,08,03,04,59,11.60
2008,08,03,05,00,11.60
2008,08,03,05,01,11.60
2008,08,03,05,02,11.60
2008,08,03,05,03,11.60
2008,08,03,05,04,11.60
2008,08,03,05,05,11.60
2008,08,03,05,06,11.60
2008,08,03,05,07,11.60
2008,08,03,05,08,11.60
2008,08,03,05,09,11.60
2008,08,03,05,10,11.60
2008,08,03,05,11,11.60
2008,08,03,05,12,11.50
2008,08,03,05,13,11.40
2008,08,03,05,14,11.40
2008,08,03,05,15,11.40
2008,08,03,05,16,11.40
2008,08,03,05,17,11.40
2008,08,03,05,18,11.40
2008,08,03,05,19,11.40
2008,08,03,05,20,11.40
2008,08,03,05,21,11.40
2008,08,03,05,22,11.40
2008,08,03,05,23,11.40
2008,08,03,05,24,11.30
2008,08,03,05,25,11.30
2008,08,03,05,26,11.20
2008,08,03,05,27,11.20
2008,08,03,05,28,11.20
2008,08,03,05,29,11.20
2008,08,03,05,30,11.20
2008,08,03,05,31,11.20
2008,08,03,05,32,11.20
2008,08,03,05,33,11.30
2008,08,03,05,34,11.30
2008,08,03,05,35,11.30
2008,08,03,05,36,11.30
2008,08,03,05,37,11.30
2008,08,03,05,38,11.30
2008,08,03,05,39,11.30
2008,08,03,05,40,11.30
2008,08,03,05,41,11.30
2008,08,03,05,42,11.30
2008,08,03,05,43,11.40
2008,08,03,05,44,11.40
2008,08,03,05,45,11.40
2008,08,03,05,46,11.40
2008,08,03,05,47,11.40
2008,08,03,05,48,11.40
2008,08,03,05,49,11.50
2008,08,03,05,50,11.60
2008,08,03,05,51,11.60
2008,08,03,05,52,11.60
2008,08,03,05,53,11.60
2008,08,03,05,54,11.60
2008,08,03,05,55,11.60
2008,08,03,05,56,11.60
2008,08,03,05,57,11.60
2008,08,03,05,58,11.60
2008,08,03,05,59,11.60
2008,08,03,06,00,11.60
2008,08,03,06,01,11.60
2008,08,03,06,02,11.60
2008,08,03,06,03,11.60
2008,08,03,06,04,11.60
2008,08,03,06,05,11.50
2008,08,03,06,06,11.40
2008,08,03,06,07,11.40
2008,08,03,06,08,11.40
2008,08,03,06,09,11.30
2008,08,03,06,10,11.30
2008,08,03,06,11,11.20
2008,08,03,06,12,11.20
2008,08,03,06,13,11.20
2008,08,03,06,14,11.20
2008,08,03,06,15,11.20
2008,08,03,06,16,11.20
2008,08,03,06,17,11.20
2008,08,03,06,18,11.20
2008,08,03,06,19,11.20
2008,08,03,06,20,11.30
2008,08,03,06,21,11.30
2008,08,03,06,22,11.40
2008,08,03,06,23,11.40
2008,08,03,06,24,11.40
2008,08,03,06,25,11.40
2008,08,03,06,26,11.40
2008,08,03,06,27,11.40
2008,08,03,06,28,11.40
2008,08,03,06,29,11.40
2008,08,03,06,30,11.40
2008,08,03,06,31,11.40
2008,08,03,06,32,11.40
2008,08,03,06,33,11.40
2008,08,03,06,34,11.50
2008,08,03,06,35,11.60
2008,08,03,06,36,11.60
2008,08,03,06,37,11.60
2008,08,03,06,38,11.70
2008,08,03,06,39,11.70
2008,08,03,06,40,11.80
2008,08,03,06,41,11.80
2008,08,03,06,42,11.90
2008,08,03,06,43,12.00
2008,08,03,06,44,12.00
2008,08,03,06,45,12.10
2008,08,03,06,46,12.20
2008,08,03,06,47,12.20
2008,08,03,06,48,12.30
2008,08,03,06,49,12.30
2008,08,03,06,50,12.40
2008,08,03,06,51,12.50
2008,08,03,06,52,12.50
2008,08,03,06,53,12.60
2008,08,03,06,54,12.70
2008,08,03,06,55,12.70
2008,08,03,06,56,12.70
2008,08,03,06,57,12.70
2008,08,03,06,58,12.70
2008,08,03,06,59,12.70
2008,08,03,07,00,12.80
2008,08,03,07,01,12.80
2008,08,03,07,02,12.80
2008,08,03,07,03,12.80
2008,08,03,07,04,12.90
2008,08,03,07,05,12.90
2008,08,03,07,06,12.90
2008,08,03,07,07,13.00
2008,08,03,07,08,13.00
2008,08,03,07,09,13.10
2008,08,03,07,10,13.10
2008,08,03,07,11,13.10
2008,08,03,07,12,13.10
2008,08,03,07,13,13.20
2008,08,03,07,14,13.20
2008,08,03,07,15,13.20
2008,08,03,07,16,13.30
2008,08,03,07,17,13.30
2008,08,03,07,18,13.30
2008,08,03,07,19,13.30
2008,08,03,07,20,13.40
2008,08,03,07,21,13.50
2008,08,03,07,22,13.50
2008,08,03,07,23,13.50
2008,08,03,07,24,13.60
2008,08,03,07,25,13.60
2008,08,03,07,26,13.70
2008,08,03,07,27,13.70
2008,08,03,07,28,13.60
2008,08,03,07,29,13.70
2008,08,03,07,30,13.70
2008,08,03,07,31,13.70
2008,08,03,07,32,13.70
2008,08,03,07,33,13.70
2008,08,03,07,34,13.80
2008,08,03,07,35,13.80
2008,08,03,07,36,13.80
2008,08,03,07,37,13.90
2008,08,03,07,38,13.90
2008,08,03,07,39,14.00
2008,08,03,07,40,14.00
2008,08,03,07,41,14.10
2008,08,03,07,42,14.20
2008,08,03,07,43,14.20
2008,08,03,07,44,14.20
2008,08,03,07,45,14.20
2008,08,03,07,46,14.20
2008,08,03,07,47,14.20
2008,08,03,07,48,14.20
2008,08,03,07,49,14.20
2008,08,03,07,50,14.30
2008,08,03,07,51,14.40
2008,08,03,07,52,14.50
2008,08,03,07,53,14.60
2008,08,03,07,54,14.60
2008,08,03,07,55,14.70
2008,08,03,07,56,14.70
2008,08,03,07,57,14.80
2008,08,03,07,58,14.80
2008,08,03,07,59,14.80
2008,08,03,08,00,14.80
2008,08,03,08,01,14.80
2008,08,03,08,02,14.90
2008,08,03,08,03,15.00
2008,08,03,08,04,15.10
2008,08,03,08,05,15.10
2008,08,03,08,06,15.20
2008,08,03,08,07,15.30
2008,08,03,08,08,15.40
2008,08,03,08,09,15.50
2008,08,03,08,10,15.60
2008,08,03,08,11,15.70
2008,08,03,08,12,15.80
2008,08,03,08,13,15.80
2008,08,03,08,14,15.90
2008,08,03,08,15,15.90
2008,08,03,08,16,16.10
2008,08,03,08,17,16.10
2008,08,03,08,18,16.10
2008,08,03,08,19,16.00
2008,08,03,08,20,15.90
2008,08,03,08,21,15.90
2008,08,03,08,22,15.80
2008,08,03,08,23,15.80
2008,08,03,08,24,15.70
2008,08,03,08,25,15.60
2008,08,03,08,26,15.50
2008,08,03,08,27,15.50
2008,08,03,08,28,15.40
2008,08,03,08,29,15.40
2008,08,03,08,30,15.40
2008,08,03,08,31,15.30
2008,08,03,08,32,15.30
2008,08,03,08,33,15.30
2008,08,03,08,34,15.30
2008,08,03,08,35,15.30
2008,08,03,08,36,15.30
2008,08,03,08,37,15.30
2008,08,03,08,38,15.30
2008,08,03,08,39,15.30
2008,08,03,08,40,15.30
2008,08,03,08,41,15.30
2008,08,03,08,42,15.30
2008,08,03,08,43,15.30
2008,08,03,08,44,15.30
2008,08,03,08,45,15.30
2008,08,03,08,46,15.40
2008,08,03,08,47,15.40
2008,08,03,08,48,15.50
2008,08,03,08,49,15.50
2008,08,03,08,50,15.50
2008,08,03,08,51,15.60
2008,08,03,08,52,15.60
2008,08,03,08,53,15.60
2008,08,03,08,54,15.60
2008,08,03,08,55,15.60
2008,08,03,08,56,15.60
2008,08,03,08,57,15.70
2008,08,03,08,58,15.70
2008,08,03,08,59,15.80
2008,08,03,09,00,15.80
2008,08,03,09,01,15.80
2008,08,03,09,02,15.80
2008,08,03,09,03,15.70
2008,08,03,09,04,15.70
2008,08,03,09,05,15.70
2008,08,03,09,06,15.80
2008,08,03,09,07,15.80
2008,08,03,09,08,15.80
2008,08,03,09,09,15.80
2008,08,03,09,10,15.80
2008,08,03,09,11,15.90
2008,08,03,09,12,15.90
2008,08,03,09,13,16.00
2008,08,03,09,14,16.10
2008,08,03,09,15,16.00
2008,08,03,09,16,15.90
2008,08,03,09,17,15.90
2008,08,03,09,18,15.90
2008,08,03,09,19,15.80
2008,08,03,09,20,15.80
2008,08,03,09,21,15.80
2008,08,03,09,22,15.90
2008,08,03,09,23,16.00
2008,08,03,09,24,16.10
2008,08,03,09,25,16.10
2008,08,03,09,26,16.10
2008,08,03,09,27,16.10
2008,08,03,09,28,16.10
2008,08,03,09,29,16.10
2008,08,03,09,30,16.10
2008,08,03,09,31,16.10
2008,08,03,09,32,16.10
2008,08,03,09,33,16.10
2008,08,03,09,34,16.20
2008,08,03,09,35,16.20
2008,08,03,09,36,16.20
2008,08,03,09,37,16.20
2008,08,03,09,38,16.20
2008,08,03,09,39,16.20
2008,08,03,09,40,16.20
2008,08,03,09,41,16.20
2008,08,03,09,42,16.20
2008,08,03,09,43,16.20
2008,08,03,09,44,16.20
2008,08,03,09,45,16.30
2008,08,03,09,46,16.20
2008,08,03,09,47,16.20
2008,08,03,09,48,16.20
2008,08,03,09,49,16.30
2008,08,03,09,50,16.20
2008,08,03,09,51,16.20
2008,08,03,09,52,16.30
2008,08,03,09,53,16.30
2008,08,03,09,54,16.40
2008,08,03,09,55,16.40
2008,08,03,09,56,16.40
2008,08,03,09,57,16.40
2008,08,03,09,58,16.50
2008,08,03,09,59,16.70
2008,08,03,10,00,16.80
2008,08,03,10,01,16.80
2008,08,03,10,02,16.80
2008,08,03,10,03,16.80
2008,08,03,10,04,16.80
2008,08,03,10,05,16.80
2008,08,03,10,06,16.80
2008,08,03,10,07,16.90
2008,08,03,10,08,16.90
2008,08,03,10,09,17.00
2008,08,03,10,10,17.10
2008,08,03,10,11,17.20
2008,08,03,10,12,17.30
2008,08,03,10,13,17.30
2008,08,03,10,14,17.30
2008,08,03,10,15,17.20
2008,08,03,10,16,17.10
2008,08,03,10,17,16.90
2008,08,03,10,18,16.80
2008,08,03,10,19,16.80
2008,08,03,10,20,16.90
2008,08,03,10,21,16.90
2008,08,03,10,22,16.90
2008,08,03,10,23,16.80
2008,08,03,10,24,16.90
2008,08,03,10,25,17.00
2008,08,03,10,26,17.00
2008,08,03,10,27,17.00
2008,08,03,10,28,16.90
2008,08,03,10,29,16.90
2008,08,03,10,30,16.90
2008,08,03,10,31,16.90
2008,08,03,10,32,16.90
2008,08,03,10,33,16.80
2008,08,03,10,34,16.80
2008,08,03,10,35,16.90
2008,08,03,10,36,16.90
2008,08,03,10,37,16.80
2008,08,03,10,38,16.80
2008,08,03,10,39,16.80
2008,08,03,10,40,16.90
2008,08,03,10,41,16.90
2008,08,03,10,42,17.00
2008,08,03,10,43,17.10
2008,08,03,10,44,17.00
2008,08,03,10,45,17.00
2008,08,03,10,46,17.00
2008,08,03,10,47,17.00
2008,08,03,10,48,16.80
2008,08,03,10,49,16.70
2008,08,03,10,50,16.70
2008,08,03,10,51,16.80
2008,08,03,10,52,16.90
2008,08,03,10,53,16.80
2008,08,03,10,54,16.80
2008,08,03,10,55,16.70
2008,08,03,10,56,16.70
2008,08,03,10,57,16.60
2008,08,03,10,58,16.70
2008,08,03,10,59,16.80
2008,08,03,11,00,16.90
2008,08,03,11,01,17.00
2008,08,03,11,02,17.00
2008,08,03,11,03,17.00
2008,08,03,11,04,17.00
2008,08,03,11,05,16.90
2008,08,03,11,06,16.70
2008,08,03,11,07,16.70
2008,08,03,11,08,16.70
2008,08,03,11,09,16.70
2008,08,03,11,10,16.80
2008,08,03,11,11,16.70
2008,08,03,11,12,16.70
2008,08,03,11,13,16.80
2008,08,03,11,14,16.80
2008,08,03,11,15,16.80
2008,08,03,11,16,16.90
2008,08,03,11,17,17.00
2008,08,03,11,18,17.10
2008,08,03,11,19,17.20
2008,08,03,11,20,17.20
2008,08,03,11,21,17.30
2008,08,03,11,22,17.40
2008,08,03,11,23,17.60
2008,08,03,11,24,17.80
2008,08,03,11,25,18.00
2008,08,03,11,26,18.10
2008,08,03,11,27,18.30
2008,08,03,11,28,18.30
2008,08,03,11,29,18.10
2008,08,03,11,30,17.90
2008,08,03,11,31,17.90
2008,08,03,11,32,18.00
2008,08,03,11,33,18.10
2008,08,03,11,34,18.30
2008,08,03,11,35,18.40
2008,08,03,11,36,18.20
2008,08,03,11,37,18.00
2008,08,03,11,38,17.80
2008,08,03,11,39,17.50
2008,08,03,11,40,17.50
2008,08,03,11,41,17.50
2008,08,03,11,42,17.50
2008,08,03,11,43,17.50
2008,08,03,11,44,17.50
2008,08,03,11,45,17.60
2008,08,03,11,46,17.70
2008,08,03,11,47,17.80
2008,08,03,11,48,17.90
2008,08,03,11,49,17.90
2008,08,03,11,50,17.90
2008,08,03,11,51,17.90
2008,08,03,11,52,17.90
2008,08,03,11,53,17.90
2008,08,03,11,54,18.00
2008,08,03,11,55,17.90
2008,08,03,11,56,17.90
2008,08,03,11,57,17.90
2008,08,03,11,58,17.90
2008,08,03,11,59,17.80
2008,08,03,12,00,17.80
2008,08,03,12,01,17.70
2008,08,03,12,02,17.70
2008,08,03,12,03,17.50
2008,08,03,12,04,17.40
2008,08,03,12,05,17.30
2008,08,03,12,06,17.30
2008,08,03,12,07,17.20
2008,08,03,12,08,17.20
2008,08,03,12,09,17.30
2008,08,03,12,10,17.30
2008,08,03,12,11,17.30
2008,08,03,12,12,17.30
2008,08,03,12,13,17.30
2008,08,03,12,14,17.30
2008,08,03,12,15,17.20
2008,08,03,12,16,17.20
2008,08,03,12,17,17.30
2008,08,03,12,18,17.30
2008,08,03,12,19,17.30
2008,08,03,12,20,17.40
2008,08,03,12,21,17.40
2008,08,03,12,22,17.50
2008,08,03,12,23,17.60
2008,08,03,12,24,17.60
2008,08,03,12,25,17.60
2008,08,03,12,26,17.70
2008,08,03,12,27,17.70
2008,08,03,12,28,17.70
2008,08,03,12,29,17.60
2008,08,03,12,30,17.60
2008,08,03,12,31,17.70
2008,08,03,12,32,17.60
2008,08,03,12,33,17.50
2008,08,03,12,34,17.50
2008,08,03,12,35,17.50
2008,08,03,12,36,17.50
2008,08,03,12,37,17.40
2008,08,03,12,38,17.40
2008,08,03,12,39,17.40
2008,08,03,12,40,17.40
2008,08,03,12,41,17.50
2008,08,03,12,42,17.60
2008,08,03,12,43,17.60
2008,08,03,12,44,17.60
2008,08,03,12,45,17.60
2008,08,03,12,46,17.70
2008,08,03,12,47,17.80
2008,08,03,12,48,17.80
2008,08,03,12,49,17.60
2008,08,03,12,50,17.70
2008,08,03,12,51,17.80
2008,08,03,12,52,17.80
2008,08,03,12,53,18.00
2008,08,03,12,54,18.20
2008,08,03,12,55,18.30
2008,08,03,12,56,18.20
2008,08,03,12,57,18.30
2008,08,03,12,58,18.40
2008,08,03,12,59,18.50
2008,08,03,13,00,18.50
2008,08,03,13,01,18.60
2008,08,03,13,02,18.50
2008,08,03,13,03,18.50
2008,08,03,13,04,18.60
2008,08,03,13,05,18.80
2008,08,03,13,06,19.00
2008,08,03,13,07,19.20
2008,08,03,13,08,19.40
2008,08,03,13,09,19.50
2008,08,03,13,10,19.60
2008,08,03,13,11,19.80
2008,08,03,13,12,19.70
2008,08,03,13,13,19.50
2008,08,03,13,14,19.40
2008,08,03,13,15,19.40
2008,08,03,13,16,19.30
2008,08,03,13,17,19.20
2008,08,03,13,18,19.20
2008,08,03,13,19,19.40
2008,08,03,13,20,19.30
2008,08,03,13,21,19.30
2008,08,03,13,22,19.30
2008,08,03,13,23,19.30
2008,08,03,13,24,19.30
2008,08,03,13,25,19.40
2008,08,03,13,26,19.50
2008,08,03,13,27,19.40
2008,08,03,13,28,19.30
2008,08,03,13,29,19.10
2008,08,03,13,30,19.10
2008,08,03,13,31,19.10
2008,08,03,13,32,19.10
2008,08,03,13,33,19.10
2008,08,03,13,34,19.10
2008,08,03,13,35,19.10
2008,08,03,13,36,19.00
2008,08,03,13,37,18.90
2008,08,03,13,38,18.90
2008,08,03,13,39,18.80
2008,08,03,13,40,18.90
2008,08,03,13,41,18.90
2008,08,03,13,42,19.00
2008,08,03,13,43,19.00
2008,08,03,13,44,18.90
2008,08,03,13,45,18.90
2008,08,03,13,46,18.90
2008,08,03,13,47,18.90
2008,08,03,13,48,18.90
2008,08,03,13,49,18.90
2008,08,03,13,50,18.90
2008,08,03,13,51,18.90
2008,08,03,13,52,18.90
2008,08,03,13,53,18.90
2008,08,03,13,54,18.90
2008,08,03,13,55,19.00
2008,08,03,13,56,19.10
2008,08,03,13,57,19.20
2008,08,03,13,58,19.10
2008,08,03,13,59,19.10
2008,08,03,14,00,19.00
2008,08,03,14,01,18.90
2008,08,03,14,02,18.90
2008,08,03,14,03,18.90
2008,08,03,14,04,19.00
2008,08,03,14,05,19.10
2008,08,03,14,06,19.20
2008,08,03,14,07,19.10
2008,08,03,14,08,19.10
2008,08,03,14,09,19.10
2008,08,03,14,10,19.10
2008,08,03,14,11,19.20
2008,08,03,14,12,19.20
2008,08,03,14,13,19.20
2008,08,03,14,14,19.40
2008,08,03,14,15,19.50
2008,08,03,14,16,19.70
2008,08,03,14,17,19.80
2008,08,03,14,18,20.00
2008,08,03,14,19,20.10
2008,08,03,14,20,20.20
2008,08,03,14,21,20.30
2008,08,03,14,22,20.40
2008,08,03,14,23,20.50
2008,08,03,14,24,20.70
2008,08,03,14,25,20.90
2008,08,03,14,26,20.90
2008,08,03,14,27,20.80
2008,08,03,14,28,20.70
2008,08,03,14,29,20.60
2008,08,03,14,30,20.70
2008,08,03,14,31,20.70
2008,08,03,14,32,20.70
2008,08,03,14,33,20.60
2008,08,03,14,34,20.60
2008,08,03,14,35,20.70
2008,08,03,14,36,20.80
2008,08,03,14,37,20.80
2008,08,03,14,38,20.60
2008,08,03,14,39,20.40
2008,08,03,14,40,20.10
2008,08,03,14,41,20.00
2008,08,03,14,42,19.90
2008,08,03,14,43,19.90
2008,08,03,14,44,20.10
2008,08,03,14,45,20.20
2008,08,03,14,46,20.40
2008,08,03,14,47,20.50
2008,08,03,14,48,20.60
2008,08,03,14,49,20.70
2008,08,03,14,50,20.50
2008,08,03,14,51,20.40
2008,08,03,14,52,20.30
2008,08,03,14,53,20.20
2008,08,03,14,54,20.20
2008,08,03,14,55,20.20
2008,08,03,14,56,20.20
2008,08,03,14,57,20.30
2008,08,03,14,58,20.30
2008,08,03,14,59,20.40
2008,08,03,15,00,20.50
2008,08,03,15,01,20.60
2008,08,03,15,02,20.80
2008,08,03,15,03,20.90
2008,08,03,15,04,20.90
2008,08,03,15,05,20.70
2008,08,03,15,06,20.50
2008,08,03,15,07,20.30
2008,08,03,15,08,20.20
2008,08,03,15,09,20.10
2008,08,03,15,10,19.90
2008,08,03,15,11,19.90
2008,08,03,15,12,19.80
2008,08,03,15,13,19.70
2008,08,03,15,14,19.70
2008,08,03,15,15,19.70
2008,08,03,15,16,19.60
2008,08,03,15,17,19.50
2008,08,03,15,18,19.60
2008,08,03,15,19,19.70
2008,08,03,15,20,19.90
2008,08,03,15,21,19.90
2008,08,03,15,22,19.90
2008,08,03,15,23,19.90
2008,08,03,15,24,19.80
2008,08,03,15,25,19.80
2008,08,03,15,26,19.80
2008,08,03,15,27,19.90
2008,08,03,15,28,20.00
2008,08,03,15,29,20.00
2008,08,03,15,30,19.90
2008,08,03,15,31,19.90
2008,08,03,15,32,19.90
2008,08,03,15,33,20.00
2008,08,03,15,34,20.10
2008,08,03,15,35,20.00
2008,08,03,15,36,19.90
2008,08,03,15,37,19.90
2008,08,03,15,38,19.90
2008,08,03,15,39,19.90
2008,08,03,15,40,20.10
2008,08,03,15,41,20.20
2008,08,03,15,42,20.20
2008,08,03,15,43,20.20
2008,08,03,15,44,20.20
2008,08,03,15,45,20.20
2008,08,03,15,46,20.20
2008,08,03,15,47,20.20
2008,08,03,15,48,20.20
2008,08,03,15,49,20.20
2008,08,03,15,50,20.20
2008,08,03,15,51,20.30
2008,08,03,15,52,20.40
2008,08,03,15,53,20.40
2008,08,03,15,54,20.30
2008,08,03,15,55,20.40
2008,08,03,15,56,20.60
2008,08,03,15,57,20.70
2008,08,03,15,58,20.80
2008,08,03,15,59,21.00
2008,08,03,16,00,21.20
2008,08,03,16,01,21.60
2008,08,03,16,02,21.90
2008,08,03,16,03,22.00
2008,08,03,16,04,22.10
2008,08,03,16,05,22.30
2008,08,03,16,06,22.50
2008,08,03,16,07,22.60
2008,08,03,16,08,22.50
2008,08,03,16,09,22.60
2008,08,03,16,10,22.80
2008,08,03,16,11,22.90
2008,08,03,16,12,23.10
2008,08,03,16,13,23.10
2008,08,03,16,14,23.20
2008,08,03,16,15,23.40
2008,08,03,16,16,23.60
2008,08,03,16,17,23.80
2008,08,03,16,18,23.90
2008,08,03,16,19,24.00
2008,08,03,16,20,24.10
2008,08,03,16,21,24.10
2008,08,03,16,22,24.10
2008,08,03,16,23,24.00
2008,08,03,16,24,23.90
2008,08,03,16,25,23.80
2008,08,03,16,26,23.90
2008,08,03,16,27,24.00
2008,08,03,16,28,24.10
2008,08,03,16,29,24.10
2008,08,03,16,30,24.10
2008,08,03,16,31,23.90
2008,08,03,16,32,23.80
2008,08,03,16,33,23.70
2008,08,03,16,34,23.50
2008,08,03,16,35,23.20
2008,08,03,16,36,22.90
2008,08,03,16,37,22.80
2008,08,03,16,38,22.60
2008,08,03,16,39,22.40
2008,08,03,16,40,22.10
2008,08,03,16,41,22.00
2008,08,03,16,42,21.80
2008,08,03,16,43,21.50
2008,08,03,16,44,21.20
2008,08,03,16,45,20.90
2008,08,03,16,46,20.80
2008,08,03,16,47,20.80
2008,08,03,16,48,20.80
2008,08,03,16,49,20.90
2008,08,03,16,50,20.90
2008,08,03,16,51,20.90
2008,08,03,16,52,20.80
2008,08,03,16,53,20.70
2008,08,03,16,54,20.70
2008,08,03,16,55,20.80
2008,08,03,16,56,20.80
2008,08,03,16,57,20.80
2008,08,03,16,58,20.80
2008,08,03,16,59,20.90
2008,08,03,17,00,21.10
2008,08,03,17,01,21.20
2008,08,03,17,02,21.30
2008,08,03,17,03,21.30
2008,08,03,17,04,21.30
2008,08,03,17,05,21.30
2008,08,03,17,06,21.20
2008,08,03,17,07,21.10
2008,08,03,17,08,21.00
2008,08,03,17,09,21.00
2008,08,03,17,10,20.90
2008,08,03,17,11,20.90
2008,08,03,17,12,20.80
2008,08,03,17,13,20.80
2008,08,03,17,14,20.90
2008,08,03,17,15,21.00
2008,08,03,17,16,21.10
2008,08,03,17,17,21.20
2008,08,03,17,18,21.30
2008,08,03,17,19,21.30